User: anonymous   Login
Location: Brunembert
(50.7122°N, 1.8935°E)
Time: 11:12:53
(UTC+00:00)
Language:

Resurs 01 Rocket - Orbit

View from above orbital plane
View from above orbital plane
View from above satellite
View from above satellite

Ground track
Ground track

The orbit data is extracted from the following two-line orbital elements,

1 23343U 94074B   21173.66098365  .00000039  00000-0  12806-4 0  9999
2 23343  97.9455 228.2159 0007819  46.4684 108.5121 14.76885657433265
Epoch (UTC): 22 June 2021 15:51:48
Eccentricity: 0.0007819
inclination: 97.9455°
perigee height: 633 km
apogee height: 644 km
right ascension of ascending node: 228.2159°
argument of perigee: 46.4684°
revolutions per day: 14.76885657
mean anomaly at epoch: 108.5121°
orbit number at epoch: 43326

The dashed part of the orbit path shows where the satellite is in the earth's shadow,  

DLR